Location: Fredericksburg
(30.2750°N, 98.8720°W)
Time: 06:05:00
(UTC-05:00)

PCSat - Visible Passes

Search period start: 19 October 2017 00:00
Search period end: 29 October 2017 00:00
Orbit: 786 x 794 km, 67.0° (Epoch: 18 October)

Date Brightness Start Highest point End Pass type
(mag) Time Alt. Az. Time Alt. Az. Time Alt. Az.
20 Oct 12.6 20:22:47 10° WNW 20:25:38 14° WSW 20:28:28 10° SW visible
21 Oct 12.3 19:50:52 10° WNW 19:54:54 22° WSW 19:58:55 10° SSW visible
22 Oct 11.8 19:19:25 10° NW 19:24:08 31° WSW 19:28:51 10° S visible
25 Oct 11.5 07:10:04 10° S 07:14:56 36° ESE 07:19:51 10° NE visible
26 Oct 12.1 06:39:52 10° SSE 06:44:10 25° ESE 06:48:29 10° NE visible
27 Oct 12.5 06:10:06 10° SE 06:13:26 17° ESE 06:16:46 10° ENE visible
28 Oct 12.8 05:41:29 10° ESE 05:42:43 11° ESE 05:43:59 10° E visible
28 Oct 9.6 07:20:03 10° SSW 07:25:26 69° WNW 07:30:51 10° NNE visible
